Year,Month,Day,Hour,Minute,Value (Times are PST for temperature in C)
2015,06,28,00,00,19.70
2015,06,28,00,01,19.70
2015,06,28,00,02,19.70
2015,06,28,00,03,19.70
2015,06,28,00,04,19.60
2015,06,28,00,05,19.60
2015,06,28,00,06,19.60
2015,06,28,00,07,19.50
2015,06,28,00,08,19.50
2015,06,28,00,09,19.40
2015,06,28,00,10,19.40
2015,06,28,00,11,19.40
2015,06,28,00,12,19.40
2015,06,28,00,13,19.40
2015,06,28,00,14,19.30
2015,06,28,00,15,19.30
2015,06,28,00,16,19.30
2015,06,28,00,17,19.30
2015,06,28,00,18,19.30
2015,06,28,00,19,19.30
2015,06,28,00,20,19.20
2015,06,28,00,21,19.20
2015,06,28,00,22,19.20
2015,06,28,00,23,19.20
2015,06,28,00,24,19.10
2015,06,28,00,25,19.10
2015,06,28,00,26,19.10
2015,06,28,00,27,19.10
2015,06,28,00,28,19.10
2015,06,28,00,29,19.00
2015,06,28,00,30,19.00
2015,06,28,00,31,19.00
2015,06,28,00,32,18.90
2015,06,28,00,33,18.90
2015,06,28,00,34,18.90
2015,06,28,00,35,18.90
2015,06,28,00,36,18.90
2015,06,28,00,37,18.90
2015,06,28,00,38,18.90
2015,06,28,00,39,18.80
2015,06,28,00,40,18.80
2015,06,28,00,41,18.80
2015,06,28,00,42,18.80
2015,06,28,00,43,18.80
2015,06,28,00,44,18.80
2015,06,28,00,45,18.70
2015,06,28,00,46,18.70
2015,06,28,00,47,18.70
2015,06,28,00,48,18.70
2015,06,28,00,49,18.60
2015,06,28,00,50,18.60
2015,06,28,00,51,18.60
2015,06,28,00,52,18.60
2015,06,28,00,53,18.60
2015,06,28,00,54,18.60
2015,06,28,00,55,18.60
2015,06,28,00,56,18.50
2015,06,28,00,57,18.50
2015,06,28,00,58,18.50
2015,06,28,00,59,18.50
2015,06,28,01,00,18.50
2015,06,28,01,01,18.50
2015,06,28,01,02,18.50
2015,06,28,01,03,18.50
2015,06,28,01,04,18.50
2015,06,28,01,05,18.50
2015,06,28,01,06,18.50
2015,06,28,01,07,18.50
2015,06,28,01,08,18.50
2015,06,28,01,09,18.40
2015,06,28,01,10,18.40
2015,06,28,01,11,18.40
2015,06,28,01,12,18.40
2015,06,28,01,13,18.40
2015,06,28,01,14,18.40
2015,06,28,01,15,18.40
2015,06,28,01,16,18.40
2015,06,28,01,17,18.40
2015,06,28,01,18,18.40
2015,06,28,01,19,18.30
2015,06,28,01,20,18.30
2015,06,28,01,21,18.30
2015,06,28,01,22,18.30
2015,06,28,01,23,18.30
2015,06,28,01,24,18.30
2015,06,28,01,25,18.20
2015,06,28,01,26,18.20
2015,06,28,01,27,18.20
2015,06,28,01,28,18.20
2015,06,28,01,29,18.20
2015,06,28,01,30,18.20
2015,06,28,01,31,18.20
2015,06,28,01,32,18.20
2015,06,28,01,33,18.10
2015,06,28,01,34,18.10
2015,06,28,01,35,18.10
2015,06,28,01,36,18.10
2015,06,28,01,37,18.10
2015,06,28,01,38,18.10
2015,06,28,01,39,18.10
2015,06,28,01,40,18.10
2015,06,28,01,41,18.10
2015,06,28,01,42,18.00
2015,06,28,01,43,18.00
2015,06,28,01,44,18.00
2015,06,28,01,45,18.00
2015,06,28,01,46,18.00
2015,06,28,01,47,18.00
2015,06,28,01,48,18.00
2015,06,28,01,49,18.00
2015,06,28,01,50,17.90
2015,06,28,01,51,17.90
2015,06,28,01,52,17.90
2015,06,28,01,53,17.90
2015,06,28,01,54,17.90
2015,06,28,01,55,17.80
2015,06,28,01,56,17.80
2015,06,28,01,57,17.80
2015,06,28,01,58,17.80
2015,06,28,01,59,17.70
2015,06,28,02,00,17.70
2015,06,28,02,01,17.70
2015,06,28,02,02,17.70
2015,06,28,02,03,17.70
2015,06,28,02,04,17.70
2015,06,28,02,05,17.70
2015,06,28,02,06,17.60
2015,06,28,02,07,17.60
2015,06,28,02,08,17.60
2015,06,28,02,09,17.60
2015,06,28,02,10,17.60
2015,06,28,02,11,17.60
2015,06,28,02,12,17.60
2015,06,28,02,13,17.60
2015,06,28,02,14,17.60
2015,06,28,02,15,17.60
2015,06,28,02,16,17.50
2015,06,28,02,17,17.50
2015,06,28,02,18,17.50
2015,06,28,02,19,17.40
2015,06,28,02,20,17.40
2015,06,28,02,21,17.40
2015,06,28,02,22,17.40
2015,06,28,02,23,17.30
2015,06,28,02,24,17.30
2015,06,28,02,25,17.30
2015,06,28,02,26,17.20
2015,06,28,02,27,17.20
2015,06,28,02,28,17.10
2015,06,28,02,29,17.10
2015,06,28,02,30,17.10
2015,06,28,02,31,17.10
2015,06,28,02,32,17.10
2015,06,28,02,33,17.10
2015,06,28,02,34,17.10
2015,06,28,02,35,17.10
2015,06,28,02,36,17.10
2015,06,28,02,37,17.10
2015,06,28,02,38,17.10
2015,06,28,02,39,17.10
2015,06,28,02,40,17.10
2015,06,28,02,41,17.10
2015,06,28,02,42,17.10
2015,06,28,02,43,17.10
2015,06,28,02,44,17.10
2015,06,28,02,45,17.10
2015,06,28,02,46,17.00
2015,06,28,02,47,17.00
2015,06,28,02,48,17.10
2015,06,28,02,49,17.00
2015,06,28,02,50,17.00
2015,06,28,02,51,17.10
2015,06,28,02,52,17.10
2015,06,28,02,53,17.10
2015,06,28,02,54,17.10
2015,06,28,02,55,17.10
2015,06,28,02,56,17.10
2015,06,28,02,57,17.10
2015,06,28,02,58,17.00
2015,06,28,02,59,17.00
2015,06,28,03,00,17.00
2015,06,28,03,01,17.00
2015,06,28,03,02,17.00
2015,06,28,03,03,17.00
2015,06,28,03,06,16.90
2015,06,28,03,07,16.90
2015,06,28,03,08,16.90
2015,06,28,03,09,16.90
2015,06,28,03,10,17.00
2015,06,28,03,11,17.00
2015,06,28,03,12,16.90
2015,06,28,03,13,17.00
2015,06,28,03,14,17.00
2015,06,28,03,15,17.00
2015,06,28,03,16,17.00
2015,06,28,03,17,17.00
2015,06,28,03,18,17.00
2015,06,28,03,19,16.90
2015,06,28,03,20,16.90
2015,06,28,03,21,17.00
2015,06,28,03,22,16.90
2015,06,28,03,23,16.90
2015,06,28,03,24,16.90
2015,06,28,03,25,16.90
2015,06,28,03,26,16.90
2015,06,28,03,27,16.90
2015,06,28,03,28,16.90
2015,06,28,03,29,16.90
2015,06,28,03,30,16.90
2015,06,28,03,31,16.90
2015,06,28,03,32,16.90
2015,06,28,03,33,16.90
2015,06,28,03,34,16.90
2015,06,28,03,35,16.90
2015,06,28,03,36,16.80
2015,06,28,03,37,16.80
2015,06,28,03,38,16.90
2015,06,28,03,39,16.90
2015,06,28,03,40,16.90
2015,06,28,03,41,16.90
2015,06,28,03,42,16.90
2015,06,28,03,43,16.90
2015,06,28,03,44,16.90
2015,06,28,03,45,16.90
2015,06,28,03,46,16.90
2015,06,28,03,47,16.90
2015,06,28,03,48,16.90
2015,06,28,03,49,16.90
2015,06,28,03,50,16.90
2015,06,28,03,51,17.00
2015,06,28,03,52,17.00
2015,06,28,03,53,17.00
2015,06,28,03,54,17.10
2015,06,28,03,55,17.10
2015,06,28,03,56,17.10
2015,06,28,03,57,17.20
2015,06,28,03,58,17.20
2015,06,28,03,59,17.20
2015,06,28,04,00,17.30
2015,06,28,04,01,17.30
2015,06,28,04,02,17.40
2015,06,28,04,03,17.40
2015,06,28,04,04,17.50
2015,06,28,04,05,17.60
2015,06,28,04,06,17.70
2015,06,28,04,07,17.80
2015,06,28,04,08,17.90
2015,06,28,04,09,18.00
2015,06,28,04,10,18.10
2015,06,28,04,11,18.30
2015,06,28,04,12,18.40
2015,06,28,04,13,18.60
2015,06,28,04,14,18.80
2015,06,28,04,15,18.90
2015,06,28,04,16,19.10
2015,06,28,04,17,19.20
2015,06,28,04,18,19.30
2015,06,28,04,19,19.50
2015,06,28,04,20,19.60
2015,06,28,04,21,19.70
2015,06,28,04,22,19.80
2015,06,28,04,23,19.90
2015,06,28,04,24,20.00
2015,06,28,04,25,20.20
2015,06,28,04,26,20.30
2015,06,28,04,27,20.40
2015,06,28,04,28,20.40
2015,06,28,04,29,20.50
2015,06,28,04,30,20.40
2015,06,28,04,31,20.40
2015,06,28,04,32,20.40
2015,06,28,04,33,20.40
2015,06,28,04,34,20.40
2015,06,28,04,35,20.30
2015,06,28,04,36,20.30
2015,06,28,04,37,20.20
2015,06,28,04,38,20.10
2015,06,28,04,39,20.10
2015,06,28,04,40,20.10
2015,06,28,04,41,20.10
2015,06,28,04,42,20.00
2015,06,28,04,43,20.00
2015,06,28,04,44,20.00
2015,06,28,04,45,19.90
2015,06,28,04,46,19.90
2015,06,28,04,47,19.90
2015,06,28,04,48,19.80
2015,06,28,04,49,19.80
2015,06,28,04,50,19.80
2015,06,28,04,51,19.80
2015,06,28,04,52,19.80
2015,06,28,04,53,19.70
2015,06,28,04,54,19.70
2015,06,28,04,55,19.70
2015,06,28,04,56,19.70
2015,06,28,04,57,19.70
2015,06,28,04,58,19.70
2015,06,28,04,59,19.70
2015,06,28,05,00,19.60
2015,06,28,05,01,19.60
2015,06,28,05,02,19.50
2015,06,28,05,03,19.50
2015,06,28,05,04,19.40
2015,06,28,05,05,19.30
2015,06,28,05,06,19.30
2015,06,28,05,07,19.20
2015,06,28,05,08,19.20
2015,06,28,05,09,19.10
2015,06,28,05,10,19.00
2015,06,28,05,11,18.90
2015,06,28,05,12,18.90
2015,06,28,05,13,18.80
2015,06,28,05,14,18.80
2015,06,28,05,15,18.70
2015,06,28,05,16,18.70
2015,06,28,05,17,18.60
2015,06,28,05,18,18.60
2015,06,28,05,19,18.60
2015,06,28,05,20,18.50
2015,06,28,05,21,18.50
2015,06,28,05,22,18.40
2015,06,28,05,23,18.40
2015,06,28,05,24,18.30
2015,06,28,05,25,18.30
2015,06,28,05,26,18.30
2015,06,28,05,27,18.20
2015,06,28,05,28,18.20
2015,06,28,05,29,18.20
2015,06,28,05,30,18.10
2015,06,28,05,31,18.10
2015,06,28,05,32,18.10
2015,06,28,05,33,18.10
2015,06,28,05,34,18.00
2015,06,28,05,35,18.00
2015,06,28,05,36,18.00
2015,06,28,05,37,18.00
2015,06,28,05,38,17.90
2015,06,28,05,39,17.90
2015,06,28,05,40,17.90
2015,06,28,05,41,17.90
2015,06,28,05,42,17.90
2015,06,28,05,43,17.80
2015,06,28,05,44,17.80
2015,06,28,05,45,17.80
2015,06,28,05,46,17.90
2015,06,28,05,47,17.90
2015,06,28,05,48,17.90
2015,06,28,05,49,17.90
2015,06,28,05,50,17.90
2015,06,28,05,51,17.90
2015,06,28,05,52,17.90
2015,06,28,05,53,17.90
2015,06,28,05,54,17.90
2015,06,28,05,55,17.90
2015,06,28,05,56,17.90
2015,06,28,05,57,18.00
2015,06,28,05,58,18.00
2015,06,28,05,59,18.00
2015,06,28,06,00,18.00
2015,06,28,06,01,18.00
2015,06,28,06,02,18.00
2015,06,28,06,03,18.10
2015,06,28,06,04,18.10
2015,06,28,06,05,18.10
2015,06,28,06,06,18.10
2015,06,28,06,07,18.10
2015,06,28,06,08,18.10
2015,06,28,06,09,18.20
2015,06,28,06,10,18.20
2015,06,28,06,11,18.20
2015,06,28,06,12,18.20
2015,06,28,06,13,18.20
2015,06,28,06,14,18.30
2015,06,28,06,15,18.30
2015,06,28,06,16,18.30
2015,06,28,06,17,18.30
2015,06,28,06,18,18.30
2015,06,28,06,19,18.40
2015,06,28,06,20,18.40
2015,06,28,06,21,18.40
2015,06,28,06,22,18.40
2015,06,28,06,23,18.50
2015,06,28,06,24,18.50
2015,06,28,06,25,18.60
2015,06,28,06,26,18.60
2015,06,28,06,27,18.70
2015,06,28,06,28,18.80
2015,06,28,06,29,18.80
2015,06,28,06,30,18.80
2015,06,28,06,31,18.90
2015,06,28,06,32,19.00
2015,06,28,06,33,19.00
2015,06,28,06,34,19.10
2015,06,28,06,35,19.20
2015,06,28,06,36,19.20
2015,06,28,06,37,19.30
2015,06,28,06,38,19.30
2015,06,28,06,39,19.40
2015,06,28,06,40,19.60
2015,06,28,06,41,19.80
2015,06,28,06,42,20.00
2015,06,28,06,43,20.10
2015,06,28,06,44,20.30
2015,06,28,06,45,20.40
2015,06,28,06,46,20.60
2015,06,28,06,47,20.70
2015,06,28,06,48,20.80
2015,06,28,06,49,20.90
2015,06,28,06,50,21.00
2015,06,28,06,51,21.10
2015,06,28,06,52,21.20
2015,06,28,06,53,21.40
2015,06,28,06,54,21.60
2015,06,28,06,55,21.70
2015,06,28,06,56,21.80
2015,06,28,06,57,21.90
2015,06,28,06,58,22.00
2015,06,28,06,59,22.10
2015,06,28,07,00,22.20
2015,06,28,07,01,22.30
2015,06,28,07,02,22.40
2015,06,28,07,03,22.50
2015,06,28,07,04,22.60
2015,06,28,07,05,22.70
2015,06,28,07,06,22.70
2015,06,28,07,07,22.80
2015,06,28,07,08,22.90
2015,06,28,07,09,23.00
2015,06,28,07,10,23.10
2015,06,28,07,11,23.20
2015,06,28,07,12,23.30
2015,06,28,07,13,23.40
2015,06,28,07,14,23.50
2015,06,28,07,15,23.60
2015,06,28,07,16,23.70
2015,06,28,07,17,23.70
2015,06,28,07,18,23.80
2015,06,28,07,19,23.80
2015,06,28,07,20,23.80
2015,06,28,07,21,23.90
2015,06,28,07,22,23.90
2015,06,28,07,23,23.90
2015,06,28,07,24,24.00
2015,06,28,07,25,24.00
2015,06,28,07,26,24.10
2015,06,28,07,27,24.10
2015,06,28,07,28,24.20
2015,06,28,07,29,24.20
2015,06,28,07,30,24.30
2015,06,28,07,31,24.40
2015,06,28,07,32,24.40
2015,06,28,07,33,24.50
2015,06,28,07,34,24.60
2015,06,28,07,35,24.60
2015,06,28,07,36,24.70
2015,06,28,07,37,24.80
2015,06,28,07,38,24.80
2015,06,28,07,39,24.80
2015,06,28,07,40,24.90
2015,06,28,07,41,24.90
2015,06,28,07,42,24.90
2015,06,28,07,43,24.90
2015,06,28,07,44,24.90
2015,06,28,07,45,24.90
2015,06,28,07,46,24.90
2015,06,28,07,47,25.00
2015,06,28,07,48,25.00
2015,06,28,07,49,25.00
2015,06,28,07,50,25.10
2015,06,28,07,51,25.10
2015,06,28,07,52,25.10
2015,06,28,07,53,25.10
2015,06,28,07,54,25.20
2015,06,28,07,55,25.20
2015,06,28,07,56,25.30
2015,06,28,07,57,25.30
2015,06,28,07,58,25.30
2015,06,28,07,59,25.40
2015,06,28,08,00,25.40
2015,06,28,08,01,25.40
2015,06,28,08,02,25.40
2015,06,28,08,03,25.50
2015,06,28,08,04,25.50
2015,06,28,08,05,25.60
2015,06,28,08,06,25.60
2015,06,28,08,07,25.60
2015,06,28,08,08,25.70
2015,06,28,08,09,25.70
2015,06,28,08,10,25.70
2015,06,28,08,11,25.70
2015,06,28,08,12,25.80
2015,06,28,08,13,25.80
2015,06,28,08,14,25.80
2015,06,28,08,15,25.80
2015,06,28,08,16,25.90
2015,06,28,08,17,25.90
2015,06,28,08,18,25.90
2015,06,28,08,19,25.90
2015,06,28,08,20,25.90
2015,06,28,08,21,26.00
2015,06,28,08,22,26.00
2015,06,28,08,23,26.10
2015,06,28,08,24,26.10
2015,06,28,08,25,26.10
2015,06,28,08,26,26.20
2015,06,28,08,27,26.20
2015,06,28,08,28,26.20
2015,06,28,08,29,26.20
2015,06,28,08,30,26.20
2015,06,28,08,31,26.20
2015,06,28,08,32,26.20
2015,06,28,08,33,26.30
2015,06,28,08,34,26.30
2015,06,28,08,35,26.30
2015,06,28,08,36,26.30
2015,06,28,08,37,26.40
2015,06,28,08,38,26.40
2015,06,28,08,39,26.40
2015,06,28,08,40,26.50
2015,06,28,08,41,26.50
2015,06,28,08,42,26.50
2015,06,28,08,43,26.50
2015,06,28,08,44,26.50
2015,06,28,08,45,26.60
2015,06,28,08,46,26.60
2015,06,28,08,47,26.60
2015,06,28,08,48,26.60
2015,06,28,08,49,26.60
2015,06,28,08,50,26.60
2015,06,28,08,51,26.60
2015,06,28,08,52,26.70
2015,06,28,08,53,26.70
2015,06,28,08,54,26.70
2015,06,28,08,55,26.70
2015,06,28,08,56,26.70
2015,06,28,08,57,26.80
2015,06,28,08,58,26.80
2015,06,28,08,59,26.80
2015,06,28,09,00,26.90
2015,06,28,09,01,26.90
2015,06,28,09,02,26.90
2015,06,28,09,03,26.90
2015,06,28,09,04,26.90
2015,06,28,09,05,27.00
2015,06,28,09,06,27.00
2015,06,28,09,07,27.10
2015,06,28,09,08,27.20
2015,06,28,09,09,27.30
2015,06,28,09,10,27.30
2015,06,28,09,11,27.30
2015,06,28,09,12,27.40
2015,06,28,09,13,27.40
2015,06,28,09,14,27.50
2015,06,28,09,15,27.60
2015,06,28,09,16,27.60
2015,06,28,09,17,27.70
2015,06,28,09,18,27.70
2015,06,28,09,19,27.80
2015,06,28,09,20,27.90
2015,06,28,09,21,27.90
2015,06,28,09,22,28.00
2015,06,28,09,23,28.00
2015,06,28,09,24,28.10
2015,06,28,09,25,28.10
2015,06,28,09,26,28.20
2015,06,28,09,27,28.20
2015,06,28,09,28,28.20
2015,06,28,09,29,28.20
2015,06,28,09,30,28.20
2015,06,28,09,31,28.20
2015,06,28,09,32,28.20
2015,06,28,09,33,28.20
2015,06,28,09,34,28.20
2015,06,28,09,35,28.20
2015,06,28,09,36,28.20
2015,06,28,09,37,28.20
2015,06,28,09,38,28.20
2015,06,28,09,39,28.20
2015,06,28,09,40,28.20
2015,06,28,09,41,28.20
2015,06,28,09,42,28.20
2015,06,28,09,43,28.20
2015,06,28,09,44,28.20
2015,06,28,09,45,28.20
2015,06,28,09,46,28.20
2015,06,28,09,47,28.20
2015,06,28,09,48,28.20
2015,06,28,09,49,28.20
2015,06,28,09,50,28.20
2015,06,28,09,51,28.20
2015,06,28,09,52,28.20
2015,06,28,09,53,28.20
2015,06,28,09,54,28.20
2015,06,28,09,55,28.20
2015,06,28,09,56,28.20
2015,06,28,09,57,28.20
2015,06,28,09,58,28.20
2015,06,28,09,59,28.20
2015,06,28,10,00,28.30
2015,06,28,10,01,28.30
2015,06,28,10,02,28.30
2015,06,28,10,03,28.30
2015,06,28,10,04,28.30
2015,06,28,10,05,28.30
2015,06,28,10,06,28.30
2015,06,28,10,07,28.20
2015,06,28,10,08,28.20
2015,06,28,10,09,28.20
2015,06,28,10,10,28.20
2015,06,28,10,11,28.30
2015,06,28,10,12,28.30
2015,06,28,10,13,28.30
2015,06,28,10,14,28.40
2015,06,28,10,15,28.40
2015,06,28,10,16,28.40
2015,06,28,10,17,28.40
2015,06,28,10,18,28.50
2015,06,28,10,19,28.50
2015,06,28,10,20,28.50
2015,06,28,10,21,28.60
2015,06,28,10,22,28.60
2015,06,28,10,23,28.70
2015,06,28,10,24,28.70
2015,06,28,10,25,28.70
2015,06,28,10,26,28.70
2015,06,28,10,27,28.60
2015,06,28,10,28,28.60
2015,06,28,10,29,28.50
2015,06,28,10,30,28.60
2015,06,28,10,31,28.60
2015,06,28,10,32,28.60
2015,06,28,10,33,28.60
2015,06,28,10,34,28.70
2015,06,28,10,35,28.60
2015,06,28,10,36,28.60
2015,06,28,10,37,28.60
2015,06,28,10,38,28.60
2015,06,28,10,39,28.60
2015,06,28,10,40,28.60
2015,06,28,10,41,28.60
2015,06,28,10,42,28.50
2015,06,28,10,43,28.50
2015,06,28,10,44,28.50
2015,06,28,10,45,28.50
2015,06,28,10,46,28.40
2015,06,28,10,47,28.40
2015,06,28,10,48,28.40
2015,06,28,10,49,28.30
2015,06,28,10,50,28.30
2015,06,28,10,51,28.40
2015,06,28,10,52,28.40
2015,06,28,10,53,28.40
2015,06,28,10,54,28.50
2015,06,28,10,55,28.50
2015,06,28,10,56,28.60
2015,06,28,10,57,28.60
2015,06,28,10,58,28.70
2015,06,28,10,59,28.80
2015,06,28,11,00,28.90
2015,06,28,11,01,29.00
2015,06,28,11,02,29.10
2015,06,28,11,03,29.20
2015,06,28,11,04,29.20
2015,06,28,11,05,29.30
2015,06,28,11,06,29.40
2015,06,28,11,07,29.40
2015,06,28,11,08,29.40
2015,06,28,11,09,29.40
2015,06,28,11,10,29.40
2015,06,28,11,11,29.30
2015,06,28,11,12,29.30
2015,06,28,11,13,29.30
2015,06,28,11,14,29.40
2015,06,28,11,15,29.40
2015,06,28,11,16,29.40
2015,06,28,11,17,29.40
2015,06,28,11,18,29.50
2015,06,28,11,19,29.50
2015,06,28,11,20,29.50
2015,06,28,11,21,29.60
2015,06,28,11,22,29.50
2015,06,28,11,23,29.40
2015,06,28,11,24,29.40
2015,06,28,11,25,29.30
2015,06,28,11,26,29.30
2015,06,28,11,27,29.20
2015,06,28,11,28,29.20
2015,06,28,11,29,29.10
2015,06,28,11,30,29.10
2015,06,28,11,31,29.00
2015,06,28,11,32,29.00
2015,06,28,11,33,29.00
2015,06,28,11,34,29.00
2015,06,28,11,35,29.10
2015,06,28,11,36,29.10
2015,06,28,11,37,29.20
2015,06,28,11,38,29.20
2015,06,28,11,39,29.20
2015,06,28,11,40,29.20
2015,06,28,11,41,29.30
2015,06,28,11,42,29.30
2015,06,28,11,43,29.40
2015,06,28,11,44,29.40
2015,06,28,11,45,29.50
2015,06,28,11,46,29.60
2015,06,28,11,47,29.50
2015,06,28,11,48,29.50
2015,06,28,11,49,29.40
2015,06,28,11,50,29.40
2015,06,28,11,51,29.30
2015,06,28,11,52,29.20
2015,06,28,11,53,29.10
2015,06,28,11,54,29.10
2015,06,28,11,55,29.00
2015,06,28,11,56,28.90
2015,06,28,11,57,28.70
2015,06,28,11,58,28.50
2015,06,28,11,59,28.40
2015,06,28,12,00,28.20
2015,06,28,12,01,28.10
2015,06,28,12,02,27.90
2015,06,28,12,03,27.70
2015,06,28,12,04,27.60
2015,06,28,12,05,27.50
2015,06,28,12,06,27.30
2015,06,28,12,07,27.20
2015,06,28,12,08,27.10
2015,06,28,12,09,27.00
2015,06,28,12,10,26.80
2015,06,28,12,11,26.70
2015,06,28,12,12,26.60
2015,06,28,12,13,26.50
2015,06,28,12,14,26.40
2015,06,28,12,15,26.30
2015,06,28,12,16,26.30
2015,06,28,12,17,26.20
2015,06,28,12,18,26.10
2015,06,28,12,19,26.00
2015,06,28,12,20,25.90
2015,06,28,12,21,25.80
2015,06,28,12,22,25.80
2015,06,28,12,23,25.70
2015,06,28,12,24,25.70
2015,06,28,12,25,25.60
2015,06,28,12,26,25.60
2015,06,28,12,27,25.60
2015,06,28,12,28,25.60
2015,06,28,12,29,25.60
2015,06,28,12,30,25.60
2015,06,28,12,31,25.60
2015,06,28,12,32,25.50
2015,06,28,12,33,25.40
2015,06,28,12,34,25.30
2015,06,28,12,35,25.10
2015,06,28,12,36,25.00
2015,06,28,12,37,24.80
2015,06,28,12,38,24.50
2015,06,28,12,39,24.20
2015,06,28,12,40,24.00
2015,06,28,12,41,23.70
2015,06,28,12,42,23.50
2015,06,28,12,43,23.30
2015,06,28,12,44,23.10
2015,06,28,12,45,22.90
2015,06,28,12,46,22.70
2015,06,28,12,47,22.60
2015,06,28,12,48,22.50
2015,06,28,12,49,22.30
2015,06,28,12,50,22.20
2015,06,28,12,51,22.10
2015,06,28,12,52,22.10
2015,06,28,12,53,22.00
2015,06,28,12,54,21.90
2015,06,28,12,55,21.80
2015,06,28,12,56,21.80
2015,06,28,12,57,21.70
2015,06,28,12,58,21.70
2015,06,28,12,59,21.60
2015,06,28,13,00,21.60
2015,06,28,13,01,21.50
2015,06,28,13,02,21.40
2015,06,28,13,03,21.30
2015,06,28,13,04,21.30
2015,06,28,13,05,21.30
2015,06,28,13,06,21.30
2015,06,28,13,07,21.30
2015,06,28,13,08,21.30
2015,06,28,13,09,21.30
2015,06,28,13,10,21.30
2015,06,28,13,11,21.40
2015,06,28,13,12,21.40
2015,06,28,13,13,21.40
2015,06,28,13,14,21.40
2015,06,28,13,15,21.30
2015,06,28,13,16,21.30
2015,06,28,13,17,21.30
2015,06,28,13,18,21.30
2015,06,28,13,19,21.20
2015,06,28,13,20,21.20
2015,06,28,13,21,21.20
2015,06,28,13,22,21.20
2015,06,28,13,23,21.20
2015,06,28,13,24,21.30
2015,06,28,13,25,21.30
2015,06,28,13,26,21.30
2015,06,28,13,27,21.30
2015,06,28,13,28,21.30
2015,06,28,13,29,21.40
2015,06,28,13,30,21.50
2015,06,28,13,31,21.50
2015,06,28,13,32,21.60
2015,06,28,13,33,21.60
2015,06,28,13,34,21.70
2015,06,28,13,35,21.70
2015,06,28,13,36,21.80
2015,06,28,13,37,21.80
2015,06,28,13,38,21.90
2015,06,28,13,39,21.90
2015,06,28,13,40,22.00
2015,06,28,13,41,22.10
2015,06,28,13,42,22.10
2015,06,28,13,43,22.20
2015,06,28,13,44,22.20
2015,06,28,13,45,22.30
2015,06,28,13,46,22.30
2015,06,28,13,47,22.40
2015,06,28,13,48,22.40
2015,06,28,13,49,22.40
2015,06,28,13,50,22.40
2015,06,28,13,51,22.40
2015,06,28,13,52,22.40
2015,06,28,13,53,22.40
2015,06,28,13,54,22.50
2015,06,28,13,55,22.50
2015,06,28,13,56,22.50
2015,06,28,13,57,22.60
2015,06,28,13,58,22.60
2015,06,28,13,59,22.60
2015,06,28,14,00,22.60
2015,06,28,14,01,22.60
2015,06,28,14,02,22.50
2015,06,28,14,03,22.50
2015,06,28,14,04,22.40
2015,06,28,14,05,22.40
2015,06,28,14,06,22.30
2015,06,28,14,07,22.30
2015,06,28,14,08,22.30
2015,06,28,14,09,22.30
2015,06,28,14,10,22.30
2015,06,28,14,11,22.30
2015,06,28,14,12,22.30
2015,06,28,14,13,22.30
2015,06,28,14,14,22.40
2015,06,28,14,15,22.40
2015,06,28,14,16,22.40
2015,06,28,14,17,22.40
2015,06,28,14,18,22.40
2015,06,28,14,19,22.40
2015,06,28,14,20,22.30
2015,06,28,14,21,22.30
2015,06,28,14,22,22.20
2015,06,28,14,23,22.20
2015,06,28,14,24,22.10
2015,06,28,14,25,22.10
2015,06,28,14,26,22.00
2015,06,28,14,27,22.00
2015,06,28,14,28,21.90
2015,06,28,14,29,21.90
2015,06,28,14,30,21.90
2015,06,28,14,31,21.90
2015,06,28,14,32,21.90
2015,06,28,14,33,21.90
2015,06,28,14,34,21.90
2015,06,28,14,35,21.90
2015,06,28,14,36,21.90
2015,06,28,14,37,21.90
2015,06,28,14,38,21.90
2015,06,28,14,39,21.80
2015,06,28,14,40,21.80
2015,06,28,14,41,21.70
2015,06,28,14,42,21.70
2015,06,28,14,43,21.60
2015,06,28,14,44,21.60
2015,06,28,14,45,21.60
2015,06,28,14,46,21.60
2015,06,28,14,47,21.60
2015,06,28,14,48,21.60
2015,06,28,14,49,21.50
2015,06,28,14,50,21.60
2015,06,28,14,51,21.60
2015,06,28,14,52,21.60
2015,06,28,14,53,21.60
2015,06,28,14,54,21.70
2015,06,28,14,55,21.70
2015,06,28,14,56,21.80
2015,06,28,14,57,21.80
2015,06,28,14,58,21.90
2015,06,28,14,59,21.90
2015,06,28,15,00,22.00
2015,06,28,15,01,22.10
2015,06,28,15,02,22.10
2015,06,28,15,03,22.20
2015,06,28,15,04,22.20
2015,06,28,15,05,22.30
2015,06,28,15,06,22.40
2015,06,28,15,07,22.40
2015,06,28,15,08,22.50
2015,06,28,15,09,22.50
2015,06,28,15,10,22.60
2015,06,28,15,11,22.60
2015,06,28,15,12,22.60
2015,06,28,15,13,22.70
2015,06,28,15,14,22.70
2015,06,28,15,15,22.70
2015,06,28,15,16,22.70
2015,06,28,15,17,22.70
2015,06,28,15,18,22.70
2015,06,28,15,19,22.70
2015,06,28,15,20,22.80
2015,06,28,15,21,22.80
2015,06,28,15,22,22.80
2015,06,28,15,23,22.80
2015,06,28,15,24,22.80
2015,06,28,15,25,22.80
2015,06,28,15,26,22.90
2015,06,28,15,27,22.90
2015,06,28,15,28,22.90
2015,06,28,15,29,22.90
2015,06,28,15,30,23.00
2015,06,28,15,31,23.00
2015,06,28,15,32,23.10
2015,06,28,15,33,23.10
2015,06,28,15,34,23.20
2015,06,28,15,35,23.20
2015,06,28,15,36,23.20
2015,06,28,15,37,23.30
2015,06,28,15,38,23.30
2015,06,28,15,39,23.30
2015,06,28,15,40,23.40
2015,06,28,15,41,23.40
2015,06,28,15,42,23.40
2015,06,28,15,43,23.40
2015,06,28,15,44,23.40
2015,06,28,15,45,23.40
2015,06,28,15,46,23.40
2015,06,28,15,47,23.40
2015,06,28,15,48,23.30
2015,06,28,15,49,23.30
2015,06,28,15,50,23.30
2015,06,28,15,51,23.30
2015,06,28,15,52,23.30
2015,06,28,15,53,23.30
2015,06,28,15,54,23.30
2015,06,28,15,55,23.30
2015,06,28,15,56,23.30
2015,06,28,15,57,23.40
2015,06,28,15,58,23.40
2015,06,28,15,59,23.40
2015,06,28,16,00,23.40
2015,06,28,16,01,23.40
2015,06,28,16,02,23.40
2015,06,28,16,03,23.40
2015,06,28,16,04,23.40
2015,06,28,16,05,23.40
2015,06,28,16,06,23.50
2015,06,28,16,07,23.50
2015,06,28,16,08,23.50
2015,06,28,16,09,23.50
2015,06,28,16,10,23.50
2015,06,28,16,11,23.50
2015,06,28,16,12,23.60
2015,06,28,16,13,23.60
2015,06,28,16,14,23.60
2015,06,28,16,15,23.60
2015,06,28,16,16,23.60
2015,06,28,16,17,23.60
2015,06,28,16,18,23.60
2015,06,28,16,19,23.60
2015,06,28,16,20,23.60
2015,06,28,16,21,23.60
2015,06,28,16,22,23.60
2015,06,28,16,23,23.60
2015,06,28,16,24,23.60
2015,06,28,16,25,23.60
2015,06,28,16,26,23.50
2015,06,28,16,27,23.50
2015,06,28,16,28,23.40
2015,06,28,16,29,23.40
2015,06,28,16,30,23.30
2015,06,28,16,31,23.30
2015,06,28,16,32,23.30
2015,06,28,16,33,23.30
2015,06,28,16,34,23.20
2015,06,28,16,35,23.20
2015,06,28,16,36,23.20
2015,06,28,16,37,23.20
2015,06,28,16,38,23.20
2015,06,28,16,39,23.20
2015,06,28,16,40,23.20
2015,06,28,16,41,23.20
2015,06,28,16,42,23.10
2015,06,28,16,43,23.10
2015,06,28,16,44,23.00
2015,06,28,16,45,22.90
2015,06,28,16,46,22.80
2015,06,28,16,47,22.80
2015,06,28,16,48,22.70
2015,06,28,16,49,22.70
2015,06,28,16,50,22.60
2015,06,28,16,51,22.60
2015,06,28,16,52,22.60
2015,06,28,16,53,22.60
2015,06,28,16,54,22.50
2015,06,28,16,55,22.50
2015,06,28,16,56,22.50
2015,06,28,16,57,22.50
2015,06,28,16,58,22.60
2015,06,28,16,59,22.50
2015,06,28,17,00,22.60
2015,06,28,17,01,22.50
2015,06,28,17,02,22.50
2015,06,28,17,03,22.50
2015,06,28,17,04,22.50
2015,06,28,17,05,22.50
2015,06,28,17,06,22.40
2015,06,28,17,07,22.40
2015,06,28,17,08,22.40
2015,06,28,17,09,22.40
2015,06,28,17,10,22.40
2015,06,28,17,11,22.40
2015,06,28,17,12,22.40
2015,06,28,17,13,22.40
2015,06,28,17,14,22.40
2015,06,28,17,15,22.30
2015,06,28,17,16,22.30
2015,06,28,17,17,22.30
2015,06,28,17,18,22.30
2015,06,28,17,19,22.30
2015,06,28,17,20,22.30
2015,06,28,17,21,22.20